Regional Weather Roundup
Issued by NWS

Home | Current Version | Previous Version | Graphics & Text | Print | Product List | Glossary On
Versions: 1 2 3 4 5 6 7 8 9 10 11 12 13 14 15 16 17 18 19 20 21 22 23 24 25 26 27 28 29 30 31 32 33 34 35 36 37 38 39 40 41 42 43 44 45 46 47 48 49 50
996
ASUS43 KMKX 251811
RWRWI

WISCONSIN REGIONAL WEATHER ROUNDUP
NATIONAL WEATHER SERVICE MILWAUKEE/SULLIVAN WI
100 PM CDT SUN SEP 25 2016

NOTE: "FAIR" INDICATES FEW OR NO CLOUDS BELOW 12,000 FEET WITH NO
SIGNIFICANT WEATHER AND/OR OBSTRUCTIONS TO VISIBILITY.

WIZ001-002-006>008-014>016-023>028-251900-
NORTHWEST WISCONSIN

CITY           SKY/WX    TMP DP  RH WIND       PRES   REMARKS
SUPERIOR ARPT  CLOUDY    69  62  78 SW12G21   29.77F
6HR MIN TEMP:  61; 6HR MAX TEMP:  69; 6HR PCP:  0.13;

ASHLAND        CLOUDY    67  65  93 S10       29.80F
6HR MIN TEMP:  63; 6HR MAX TEMP:  67; 6HR PCP:  0.03;

HAYWARD        PTSUNNY   66  63  90 S8        29.83F
6HR MIN TEMP:  61; 6HR MAX TEMP:  65; 6HR PCP:  0.10;

SIREN          MOSUNNY   66  55  66 SW16      29.85S
6HR MIN TEMP:  62; 6HR MAX TEMP:  66; 6HR PCP:  0.31;

CUMBERLAND     CLOUDY    68  55  64 SW15      29.86S
RICE LAKE      CLOUDY    68  57  68 SW13      29.88S
6HR MIN TEMP:  63; 6HR MAX TEMP:  68; 6HR PCP:  0.14;

CHETEK         NOT AVBL
LADYSMITH      CLOUDY    66  65  96 S9        29.88F FOG
6HR MIN TEMP:  62; 6HR MAX TEMP:  66; 6HR PCP:  0.03;

EAU CLAIRE     CLOUDY    66  62  87 SW10      29.88S
6HR MIN TEMP:  64; 6HR MAX TEMP:  67; 6HR PCP:  0.09;

MENOMONIE      CLOUDY    67  66  97 S10       29.89S
6HR MIN TEMP:  65; 6HR MAX TEMP:  67; 6HR PCP:  0.09;

NEW RICHMOND   MOSUNNY   65  53  66 SW15G21   29.90R
6HR MIN TEMP:  61; 6HR MAX TEMP:  67; 6HR PCP:  0.25;

OSCEOLA        PTSUNNY   66  55  66 W16       29.92R
6HR MIN TEMP:  62; 6HR MAX TEMP:  67; 6HR PCP:  0.14;

$$

WIZ003>005-009-010-017-018-251900-
NORTH CENTRAL WISCONSIN

CITY           SKY/WX    TMP DP  RH WIND       PRES   REMARKS
MANITOWISH WTR NOT AVBL
ARBOR VITAE    LGT RAIN  63  62  96 S8G16     29.90F
6HR MIN TEMP:  59; 6HR MAX TEMP:  63; 6HR PCP:  0.23;

WOODRUFF       LGT RAIN  63  62  96 S8G16     29.90F
6HR MIN TEMP:  59; 6HR MAX TEMP:  63; 6HR PCP:  0.23;

RHINELANDER    CLOUDY    64  64 100 S8        29.93F
6HR MIN TEMP:  60; 6HR MAX TEMP:  64; 6HR PCP:  0.11;

EAGLE RIVER    LGT RAIN  63  63 100 S9        29.91F
6HR MIN TEMP:  59; 6HR MAX TEMP:  63;

LAND O LAKES   CLOUDY    63  62  97 S8        29.93F
6HR MIN TEMP:  58; 6HR MAX TEMP:  63;

PHILLIPS       DRIZZLE   64  64 100 S8        29.87F
6HR MIN TEMP:  58; 6HR MAX TEMP:  64; 6HR PCP:  0.09;

TOMAHAWK       CLOUDY    63  62  96 SE3       29.91F FOG
6HR MIN TEMP:  58; 6HR MAX TEMP:  63;

MEDFORD        DRIZZLE  N/A N/A N/A S10       29.90F
                                      6HR PCP:  0.20;

MERRILL        CLOUDY    64  64 100 S5        29.92F FOG
6HR MIN TEMP:  59; 6HR MAX TEMP:  64;

$$

WIZ029-030-035-036-043>047-251900-
CENTRAL WISCONSIN

CITY           SKY/WX    TMP DP  RH WIND       PRES   REMARKS
WAUSAU         CLOUDY    66  64  93 S10       29.91F FOG
6HR MIN TEMP:  59; 6HR MAX TEMP:  66; 6HR PCP:  0.45;

MOSINEE        CLOUDY    66  66 100 SE7       29.93F FOG
MARSHFIELD     CLOUDY    68  65  90 S8        29.92F FOG
6HR MIN TEMP:  60; 6HR MAX TEMP:  69; 6HR PCP:  0.14;

STEVENS POINT  CLOUDY    71  68  91 S9        29.93F
6HR MIN TEMP:  57; 6HR MAX TEMP:  71; 6HR PCP:  0.24;

WAUPACA        PTSUNNY   75  72  88 CALM      29.93F
WAUTOMA        CLOUDY    76  69  79 S7        29.94F
6HR MIN TEMP:  57; 6HR MAX TEMP:  77;

WISC RAPIDS    CLOUDY    73  69  87 SW9       29.93F
6HR MIN TEMP:  61; 6HR MAX TEMP:  73; 6HR PCP:  0.11;

CAMP DOUGLAS   HVY RAIN  72  68  88 S7        29.92F
$$

WIZ011>013-019>022-031-037>040-048>050-251900-
NORTHEAST WISCONSIN

CITY           SKY/WX    TMP DP  RH WIND       PRES   REMARKS
ANTIGO         DRIZZLE   64  64 100 CALM      29.95F
6HR MIN TEMP:  57; 6HR MAX TEMP:  64; 6HR PCP:  0.34;

SHAWANO        CLOUDY    77  67  69 S8        29.91F
6HR MIN TEMP:  60; 6HR MAX TEMP:  79;

OCONTO         NOT AVBL
STURGEON BAY   CLOUDY    68  63  84 S16G30    29.99F
6HR MIN TEMP:  62; 6HR MAX TEMP:  68;

GREEN BAY      CLOUDY    76  67  73 SE13G25   29.94F
6HR MIN TEMP:  62; 6HR MAX TEMP:  76;

MANITOWOC      PTSUNNY   69  62  78 S24G30    29.99F
6HR MIN TEMP:  64; 6HR MAX TEMP:  70;

APPLETON       PTSUNNY   75  63  64 S17G23    29.93F
CLINTONVILLE   NOT AVBL
OSHKOSH        PTSUNNY   78  66  66 S14G25    29.93F HX  80
6HR MIN TEMP:  64; 6HR MAX TEMP:  79;

$$

WIZ032>034-041-042-053>061-251900-
SOUTHWEST WISCONSIN

CITY           SKY/WX    TMP DP  RH WIND       PRES   REMARKS
LA CROSSE      CLOUDY    73  68  84 S10       29.91S
6HR MIN TEMP:  68; 6HR MAX TEMP:  74; 6HR PCP: TRACE;

SPARTA         CLOUDY    69  67  91 S3        29.93S
6HR MIN TEMP:  65; 6HR MAX TEMP:  71; 6HR PCP:  0.02;

VIROQUA        CLOUDY    70  67  90 SW9G16    29.96R
6HR MIN TEMP:  63; 6HR MAX TEMP:  71; 6HR PCP:  0.05;

BOSCOBEL       CLOUDY    77  69  76 W5        29.94F
6HR MIN TEMP:  63; 6HR MAX TEMP:  77; 6HR PCP:  0.01;

PRAIRIE DU CHI CLOUDY    74  65  73 SW9       29.95S
6HR MIN TEMP:  64; 6HR MAX TEMP:  76;

PLATTEVILLE    PTSUNNY   80  71  74 SW9       29.97F HX  83
6HR MIN TEMP:  65; 6HR MAX TEMP:  80;

$$

WIZ056-057-062-063-064-067-068-251900-
SOUTH CENTRAL WISCONSIN

CITY           SKY/WX    TMP DP  RH WIND       PRES   REMARKS
REEDSBURG      NOT AVBL
BARABOO/DELLS  CLOUDY    74  67  79 SW8       29.95F
6HR MIN TEMP:  64; 6HR MAX TEMP:  75;

LONE ROCK      CLOUDY    76  68  76 SW8       29.94F
6HR MIN TEMP:  64; 6HR MAX TEMP:  77; 6HR PCP:  0.03;

MINERAL POINT  CLOUDY    79  70  73 SW9       29.97F HX  81
MADISON        CLOUDY    78  70  76 S8        29.95S HX  80
6HR MIN TEMP:  64; 6HR MAX TEMP:  79; 6HR PCP: TRACE;

MIDDLETON      CLOUDY    79  71  75 SW9       29.96F HX  82
6HR MIN TEMP:  64; 6HR MAX TEMP:  80;

WATERTOWN      SUNNY     78  68  72 S10       29.96F HX  80
6HR MIN TEMP:  64; 6HR MAX TEMP:  80;

MONROE         PTSUNNY   79  70  73 SW8       29.96F HX  81
JANESVILLE     MOSUNNY   81  66  61 S17G23    29.96F HX  83
$$

WIZ051-052-058>065-066-070>072-251900-
SOUTHEAST WISCONSIN

CITY           SKY/WX    TMP DP  RH WIND       PRES   REMARKS
MILWAUKEE      PTSUNNY   75  64  68 SE14      30.00F
6HR MIN TEMP:  67; 6HR MAX TEMP:  75;

WAUKESHA       SUNNY     75  64  69 SE12      30.01F
MILWAUKEE/TIMM SUNNY     75  61  60 SE10      30.00F
RACINE         MOSUNNY   71  60  68 S14       30.03F
6HR MIN TEMP:  66; 6HR MAX TEMP:  72;

BURLINGTON     MOSUNNY   79  65  60 SE12      29.99F HX  81
6HR MIN TEMP:  61; 6HR MAX TEMP:  79;

KENOSHA        MOSUNNY   75  64  68 SE8       30.01F
6HR MIN TEMP:  65; 6HR MAX TEMP:  76;

FOND DU LAC    MOSUNNY   78  66  66 S15       29.95F HX  80
6HR MIN TEMP:  65; 6HR MAX TEMP:  80;

SHEBOYGAN      MOSUNNY   70  62  76 S16G23    30.01F
6HR MIN TEMP:  65; 6HR MAX TEMP:  71;

WEST BEND      SUNNY     75  64  69 SE12      29.98F
JUNEAU         PTSUNNY   79  68  69 SE14      29.97F HX  81
6HR MIN TEMP:  62; 6HR MAX TEMP:  79;

$$

LSZ147-162-251900-
LAKE SUPERIOR

STATION/POSITION TIME  TEMP    WIND        PRES    WAVE
                       AIR SEA DIR/SP/G            HT/PER
                 (UTC) (F)     (DEG/KT/KT) (MB)    (FT/S)
W MID LAKE BUOY  1750   64 61  160/ 16/ 17 1008.7F   3/ 4
DEVILS ISLAND    1800   64     170/  9/ 13 1008.5F
SAXON HARBOR     1700   69     190/  8/ 17 1009.8F
$$

LMZ867-665-643>646-251900-
LAKE MICHIGAN

STATION/POSITION TIME  TEMP    WIND        PRES    WAVE
                       AIR SEA DIR/SP/G            HT/PER
                 (UTC) (F)     (DEG/KT/KT) (MB)    (FT/S)
CHAMBERS ISLAND  1700   66     130/  8/ 14 1015.6F
S GREEN BAY BUOY 1600   67 66  170/ 14/ 17 1015.6F
N MID LAKE BUOY  1750   66 67  170/ 19/ 21 1015.9F   4/ 6
NORTHPORT PIER   1700   65     150/ 13/ 21 1016.6F
SISTER BAY       1708   67     170/ 16/ 21   N/A
KEWAUNEE LAKESHO 1700   66     160/ 19/ 22 1016.1F
SHEBOYGAC1F1C2F2C3F3C4F4C5F5C6F6C7F7C8M1C9M2Ca!



USA.gov is the U.S. government's official web portal to all federal, state and local government web resources and services.